Wetbulb
70.75 72.06 72.57 73.27 73.62 73.86 73.73 73.33 73.23 73.29 73.57 73.94 74.08 73.95 74.18 74.18 74.20 74.04 74.17 74.06 74.53 74.92 74.70 73.93 73.63 73.21 72.73 72.83 73.04 73.26 72.73 72.36 72.09 72.59 72.82 72.98 72.36 71.98 71.92 71.69 71.33 70.27 71.69
71.59 72.43 72.13 72.98 73.49 73.57 73.86 73.63 73.16 73.30 73.61 73.94 73.88 73.78 73.92 73.94 73.90 74.04 73.97 73.99 74.51 74.82 74.15 73.70 73.31 72.98 72.86 72.85 72.50 72.42 72.12 71.92 71.51 71.87 72.21 72.63 71.91 71.70 71.57 71.61 70.95 70.54 71.19
71.12 72.44 72.48 72.17 73.07 73.44 73.59 73.98 73.56 73.56 73.82 73.94 73.95 73.82 73.85 73.92 73.98 73.91 73.64 73.91 74.16 74.50 74.00 73.30 73.20 72.83 72.92 72.45 72.03 71.91 71.84 71.45 70.96 70.88 71.15 69.19 69.53 71.47 71.16 71.07 71.02 70.91 70.63
71.69 71.60 72.17 71.81 72.48 73.22 73.26 73.48 73.92 74.07 74.00 73.83 73.98 73.82 73.82 74.00 73.23 73.50 73.61 73.59 73.68 73.92 73.93 73.35 73.10 72.88 72.51 71.93 71.55 71.38 71.25 70.90 70.40 70.50 68.88 69.02 69.27 70.88 70.95 70.59 70.77 70.52 70.42
71.44 71.62 72.04 71.16 71.89 72.95 73.08 73.23 73.65 73.76 73.60 73.43 73.45 73.88 73.72 73.61 73.57 73.65 72.92 73.26 73.36 73.77 73.83 73.37 73.21 72.71 71.63 70.90 70.73 70.67 70.50 70.06 69.35 69.16 68.29 68.18 68.20 70.04 70.48 70.07 69.87 70.13 69.22
71.01 72.17 69.50 70.48 71.32 72.52 72.93 73.08 73.20 73.23 72.80 72.93 72.91 73.33 73.82 73.48 73.48 72.94 72.52 72.93 73.33 72.68 73.26 73.30 72.97 71.75 70.52 70.00 69.97 69.94 69.49 68.97 68.48 67.17 67.59 68.55 67.37 69.97 70.02 69.73 69.48 69.32 68.92
71.26 72.29 70.86 69.66 70.96 72.17 72.73 73.02 72.89 72.63 72.21 72.32 72.63 72.82 73.05 73.12 72.88 71.95 71.60 72.23 72.43 72.35 72.65 72.16 71.87 70.77 70.17 69.56 69.69 69.27 68.52 67.91 67.39 66.79 67.76 67.44 67.85 69.75 69.88 68.98 68.92 68.70 68.22
73.18 73.10 71.18 70.33 70.77 71.23 71.99 72.05 71.72 71.60 71.84 71.90 72.12 72.37 72.53 72.38 71.28 71.33 71.45 71.38 71.68 71.55 71.55 70.75 70.55 70.21 69.79 69.39 69.09 68.36 67.54 66.31 67.81 66.74 67.20 66.92 68.56 69.31 69.13 68.52 68.01 67.73 67.27
73.57 73.17 71.13 70.53 70.69 70.20 70.12 70.08 69.66 70.31 71.14 71.37 71.46 71.45 71.46 70.59 69.93 70.90 70.92 70.86 70.43 70.37 70.08 70.54 69.88 69.36 69.24 68.90 68.27 67.42 65.99 67.00 66.14 66.69 66.72 66.53 68.86 68.63 68.45 67.64 67.21 67.19 66.63
73.38 73.68 71.69 71.35 70.90 70.55 70.76 69.15 68.96 69.53 70.17 70.77 70.96 70.56 70.15 69.83 69.24 69.64 69.89 69.70 69.52 69.75 69.43 69.33 68.59 68.18 67.49 67.86 67.30 65.70 65.91 66.87 66.65 65.80 65.88 65.82 68.05 68.17 67.97 67.41 66.59 66.53 66.12
72.65 73.02 72.95 71.94 71.45 71.38 71.08 70.52 69.49 69.73 69.66 70.05 70.44 69.53 67.94 70.83 70.20 70.02 68.80 67.97 68.10 68.19 67.95 67.63 67.24 66.81 65.71 65.47 66.34 65.80 65.73 64.88 65.59 65.33 65.20 66.45 67.50 67.37 67.11 66.24 66.32 65.04 63.89
70.49 72.11 72.07 72.17 71.54 71.74 71.17 70.72 70.42 70.72 70.46 70.62 70.96 70.96 70.46 70.40 69.98 69.51 68.06 66.77 67.31 67.08 67.08 67.04 66.74 66.03 65.63 65.53 64.14 64.28 64.57 65.88 64.66 64.16 64.46 66.26 67.24 66.42 65.54 64.75 64.42 64.46 63.13
70.28 70.81 71.83 71.42 72.06 71.92 70.19 71.10 70.21 70.39 70.07 70.55 70.89 70.88 71.05 69.78 69.41 68.59 66.79 66.46 66.55 66.57 66.19 66.20 65.89 65.80 66.06 65.83 64.76 64.39 64.97 63.91 64.36 64.42 65.14 65.75 66.67 65.90 64.94 64.13 63.36 63.32 63.53
68.90 70.68 70.97 71.59 71.82 72.04 71.21 70.84 70.30 69.76 69.78 70.03 70.22 70.48 69.79 68.71 68.70 67.74 66.77 65.70 65.19 65.16 64.87 65.60 64.99 64.67 64.81 65.78 65.25 65.21 64.10 63.63 63.64 64.14 64.52 64.79 65.54 65.85 65.11 64.32 63.63 64.11 63.55
62.04 69.38 70.74 70.67 71.27 71.81 71.50 70.31 70.76 69.72 69.62 70.15 70.19 70.53 70.02 68.53 68.08 67.50 66.73 65.90 64.65 64.61 64.80 64.61 63.85 63.20 63.97 64.12 64.82 64.51 63.85 63.41 63.21 63.75 63.82 63.60 64.07 64.96 64.63 64.10 63.88 63.54 62.85
60.03 64.03 70.83 70.15 71.14 71.09 70.64 70.65 69.92 70.79 70.79 70.25 70.05 69.77 69.75 68.81 68.29 67.12 66.08 65.20 65.11 64.84 65.09 64.37 63.78 62.45 63.27 63.67 63.73 64.10 63.39 63.61 63.27 63.02 62.39 62.22 62.94 63.62 63.98 63.53 63.87 63.02 62.87
58.31 61.81 70.59 70.07 70.59 70.78 70.30 70.61 70.26 69.70 69.45 69.26 69.41 69.57 69.10 68.48 67.61 66.31 65.58 65.01 64.86 65.08 64.04 63.58 63.15 63.24 62.81 63.34 62.70 62.92 63.69 62.94 62.21 61.87 61.26 61.60 61.52 61.79 62.59 63.57 64.17 63.81 62.97
57.72 59.89 69.52 71.02 70.15 70.20 70.20 69.85 68.34 69.65 68.94 68.34 68.56 69.19 68.91 68.34 67.42 66.06 65.34 64.79 64.83 64.41 63.94 63.29 62.86 62.64 62.02 61.64 60.86 62.00 61.96 60.95 61.03 60.69 60.85 60.77 60.66 60.78 61.40 62.22 63.38 63.59 63.67
57.51 60.17 63.79 70.70 70.10 69.38 69.46 68.11 67.58 68.28 68.53 67.90 67.74 67.56 68.24 67.94 66.87 65.71 64.66 64.72 64.51 64.03 63.69 62.80 62.32 62.12 61.08 61.01 60.79 61.42 60.65 59.87 59.17 60.88 60.15 60.19 60.22 59.88 59.75 61.56 61.92 62.16 62.76
58.22 58.73 63.20 70.49 69.84 69.05 68.93 67.60 67.46 66.83 66.82 68.03 67.56 66.86 66.83 67.03 66.57 65.68 64.68 64.16 64.31 63.17 62.85 62.42 61.19 61.66 61.12 60.65 62.32 61.01 58.84 58.31 58.29 59.08 59.76 60.48 59.82 59.73 59.74 60.51 60.78 60.40 60.73
59.62 60.14 62.86 67.18 69.22 68.20 67.12 65.85 65.41 64.72 65.40 65.76 66.85 66.61 66.40 65.68 65.16 65.08 64.19 63.58 63.48 62.53 62.23 62.15 61.20 60.34 60.12 61.01 59.41 57.94 58.19 57.66 57.17 57.21 59.94 59.25 59.22 59.49 59.52 60.86 60.20 59.54 59.51
58.66 59.94 61.98 65.86 68.86 67.60 66.94 66.47 65.62 64.68 64.97 64.99 64.74 64.90 65.08 64.81 64.48 64.31 64.06 63.12 62.69 62.07 61.65 61.60 60.87 59.57 59.98 60.65 57.41 56.17 53.31 55.18 57.54 58.29 59.13 59.33 59.15 59.83 59.40 60.12 59.66 59.22 58.82
58.87 60.55 61.59 64.06 68.78 68.19 67.17 65.91 65.58 65.46 65.40 64.39 63.72 63.02 63.65 64.30 63.92 63.53 63.46 62.96 62.42 62.06 61.05 61.15 60.56 59.25 58.30 59.44 59.29 55.98 52.10 50.53 53.54 55.95 57.35 56.59 58.60 59.24 58.85 59.34 60.15 59.46 58.90
58.91 61.06 61.10 62.94 64.78 68.17 66.66 65.29 64.92 64.01 62.09 62.44 62.59 62.81 63.05 63.56 63.42 63.43 62.92 62.73 62.17 61.64 61.03 60.79 61.14 60.05 59.20 57.24 58.80 58.71 56.73 56.03 51.96 50.65 55.34 56.89 57.96 57.44 57.84 58.13 58.60 59.01 58.60
57.92 60.97 61.89 62.66 63.82 67.06 66.03 65.85 65.30 64.07 63.05 62.58 62.59 62.30 62.41 62.53 62.78 62.65 62.74 62.38 61.47 61.31 61.01 60.80 60.56 59.93 59.77 58.44 57.90 57.27 56.00 56.91 55.97 52.85 50.45 52.64 55.89 56.88 57.01 57.67 57.16 57.34 58.42
58.11 60.71 62.40 62.81 64.35 66.31 66.00 65.87 65.78 63.30 63.00 62.13 61.50 61.76 61.38 61.44 61.51 61.83 62.06 61.80 61.00 60.81 60.59 60.53 60.67 60.28 59.69 59.23 58.82 58.17 56.46 55.46 54.67 54.56 52.40 52.82 53.46 55.34 57.07 57.36 57.31 57.94 57.99
MSLP
1004.41 1005.28 1006.06 1006.54 1006.91 1007.32 1007.81 1008.35 1008.85 1009.26 1009.65 1010.05 1010.42 1010.76 1011.09 1011.42 1011.75 1012.02 1012.21 1012.35 1012.65 1012.89 1013.22 1013.75 1014.02 1014.29 1014.78 1014.90 1015.17 1015.33 1015.63 1015.87 1015.94 1016.11 1016.28 1016.71 1017.01 1017.33 1017.60 1017.85 1018.04 1018.52 1018.79
1004.15 1005.13 1006.04 1006.56 1006.94 1007.32 1007.86 1008.40 1008.89 1009.35 1009.77 1010.16 1010.55 1010.93 1011.32 1011.68 1011.99 1012.28 1012.47 1012.73 1012.99 1013.27 1013.64 1013.94 1014.25 1014.54 1014.75 1015.28 1015.52 1015.74 1015.96 1016.23 1016.37 1016.55 1016.82 1017.13 1017.50 1017.77 1017.97 1018.16 1018.69 1019.00 1019.33
1004.13 1005.07 1006.04 1006.62 1006.97 1007.35 1007.87 1008.44 1008.94 1009.40 1009.82 1010.24 1010.71 1011.10 1011.43 1011.74 1012.11 1012.49 1012.78 1012.91 1013.18 1013.44 1013.91 1014.24 1014.41 1014.61 1014.95 1015.45 1015.84 1015.98 1016.18 1016.44 1016.72 1016.90 1017.17 1017.57 1018.02 1018.28 1018.56 1018.83 1019.25 1019.41 1019.81
1004.14 1004.95 1005.88 1006.64 1007.02 1007.40 1007.92 1008.50 1009.00 1009.44 1009.87 1010.39 1010.84 1011.16 1011.49 1011.80 1012.08 1012.55 1012.90 1013.21 1013.49 1013.82 1014.14 1014.47 1014.74 1014.96 1015.25 1015.57 1016.02 1016.37 1016.49 1016.73 1017.03 1017.25 1017.51 1017.93 1018.35 1018.68 1018.94 1019.29 1019.56 1019.84 1020.17
1004.17 1004.82 1005.72 1006.57 1007.06 1007.48 1007.98 1008.53 1009.03 1009.44 1009.89 1010.36 1010.84 1011.28 1011.52 1011.85 1012.11 1012.55 1012.97 1013.35 1013.63 1013.88 1014.22 1014.56 1014.92 1015.45 1015.58 1015.86 1016.19 1016.56 1016.91 1017.02 1017.21 1017.48 1017.80 1018.40 1018.79 1019.10 1019.34 1019.59 1019.95 1020.23 1020.51
1004.17 1004.62 1005.99 1006.57 1007.08 1007.56 1007.99 1008.49 1009.00 1009.45 1009.93 1010.38 1010.79 1011.18 1011.51 1011.77 1012.04 1012.50 1012.89 1013.42 1013.70 1013.98 1014.33 1014.60 1015.13 1015.51 1015.94 1016.14 1016.38 1016.70 1017.03 1017.33 1017.57 1017.82 1018.21 1018.78 1019.19 1019.32 1019.79 1020.10 1020.42 1020.66 1021.02
1004.07 1005.17 1006.14 1006.64 1007.09 1007.58 1008.07 1008.50 1008.93 1009.38 1009.85 1010.25 1010.73 1011.11 1011.42 1011.70 1012.08 1012.43 1012.95 1013.35 1013.82 1014.16 1014.53 1014.98 1015.36 1015.70 1016.00 1016.33 1016.63 1016.88 1017.22 1017.69 1017.83 1018.20 1018.46 1019.09 1019.62 1019.76 1020.15 1020.49 1020.89 1021.14 1021.46
1004.58 1005.47 1006.32 1006.96 1007.31 1007.73 1008.23 1008.55 1008.97 1009.40 1009.80 1010.22 1010.60 1010.99 1011.28 1011.68 1011.95 1012.45 1012.90 1013.37 1013.74 1014.13 1014.58 1015.05 1015.51 1015.79 1016.08 1016.37 1016.71 1017.06 1017.53 1017.87 1018.00 1018.53 1018.83 1019.54 1019.84 1020.04 1020.50 1020.90 1021.21 1021.56 1021.85
1004.38 1005.47 1006.51 1007.00 1007.41 1007.73 1008.26 1008.66 1009.05 1009.35 1009.70 1010.10 1010.60 1010.95 1011.33 1011.71 1012.03 1012.45 1012.77 1013.25 1013.68 1014.20 1014.47 1015.25 1015.65 1015.92 1016.31 1016.40 1016.70 1017.12 1017.78 1018.03 1018.33 1018.68 1019.09 1019.85 1020.18 1020.34 1020.88 1021.21 1021.51 1021.76 1022.17
1004.52 1005.42 1006.32 1006.78 1007.22 1007.54 1008.16 1008.68 1009.15 1009.49 1009.73 1010.10 1010.51 1010.87 1011.30 1011.69 1012.05 1012.52 1012.83 1013.25 1013.70 1014.38 1014.75 1015.09 1015.66 1015.94 1016.72 1016.80 1016.78 1017.37 1017.77 1018.10 1018.39 1018.76 1019.33 1019.90 1020.42 1020.74 1021.09 1021.43 1021.66 1021.91 1022.37
1004.62 1005.32 1005.99 1006.59 1006.90 1007.22 1007.72 1008.42 1009.06 1009.47 1009.78 1010.14 1010.53 1010.88 1011.24 1011.63 1012.02 1012.41 1012.83 1013.32 1013.71 1014.38 1014.89 1015.65 1016.23 1016.77 1017.12 1017.30 1017.18 1017.38 1017.71 1017.94 1018.47 1018.95 1019.44 1020.11 1020.54 1020.91 1021.27 1021.53 1021.73 1022.19 1022.60
1004.42 1005.10 1005.71 1006.32 1006.54 1006.87 1006.96 1007.85 1008.55 1009.10 1009.58 1010.03 1010.37 1010.71 1011.11 1011.24 1011.54 1012.11 1012.73 1013.25 1013.74 1014.71 1015.20 1015.70 1015.88 1017.11 1017.42 1017.60 1017.82 1017.84 1017.93 1017.96 1018.39 1019.22 1019.62 1020.11 1020.62 1021.06 1021.38 1021.63 1022.09 1022.47 1022.81
1003.68 1004.59 1005.27 1006.00 1006.32 1006.52 1006.69 1007.39 1007.90 1008.40 1009.01 1009.59 1009.94 1010.20 1010.57 1010.95 1011.50 1012.00 1012.98 1013.44 1013.93 1014.51 1015.36 1015.97 1016.92 1016.70 1016.77 1017.37 1017.81 1017.72 1017.71 1018.02 1018.57 1019.13 1019.68 1020.27 1020.56 1021.11 1021.46 1021.83 1022.19 1022.65 1023.04
1002.57 1003.38 1004.38 1005.31 1006.06 1006.24 1006.47 1006.85 1007.33 1007.73 1008.31 1009.01 1009.37 1009.79 1010.14 1010.66 1011.44 1012.09 1012.83 1013.46 1014.04 1014.50 1015.21 1015.87 1016.03 1017.11 1016.47 1017.15 1017.24 1017.35 1017.67 1018.00 1018.53 1018.99 1019.77 1020.22 1020.46 1021.04 1021.49 1021.98 1022.31 1022.67 1023.13
1001.76 1002.33 1003.27 1004.23 1005.26 1005.82 1006.12 1006.46 1006.69 1007.16 1007.86 1008.25 1008.76 1009.30 1009.82 1010.50 1011.33 1011.93 1012.60 1013.17 1013.97 1014.49 1014.85 1015.47 1016.27 1016.44 1016.57 1017.01 1017.49 1017.16 1017.63 1017.93 1018.41 1019.12 1019.73 1020.25 1020.58 1020.82 1021.43 1021.89 1022.20 1022.76 1023.18
1001.15 1001.31 1002.48 1003.36 1004.15 1005.10 1005.76 1006.15 1006.48 1006.85 1007.26 1007.65 1008.32 1008.86 1009.48 1010.15 1011.10 1011.80 1012.49 1012.92 1013.45 1014.16 1014.66 1015.22 1015.76 1016.29 1016.73 1017.06 1017.32 1017.01 1017.26 1017.48 1018.21 1018.91 1019.71 1020.33 1020.66 1020.81 1021.46 1021.78 1022.27 1022.62 1023.18
1000.50 1000.59 1001.65 1002.57 1003.45 1004.14 1005.15 1005.92 1006.45 1006.88 1007.23 1007.46 1007.96 1008.51 1009.16 1009.87 1010.64 1011.50 1012.13 1012.74 1013.19 1013.70 1014.41 1015.03 1015.55 1016.12 1016.77 1016.95 1017.29 1016.87 1016.88 1017.23 1017.74 1018.66 1019.65 1020.25 1020.82 1020.99 1021.41 1021.89 1022.25 1022.62 1023.01
999.88 999.97 1000.59 1001.59 1002.79 1003.57 1004.41 1005.37 1006.24 1006.72 1007.14 1007.51 1007.73 1008.12 1008.82 1009.48 1010.20 1010.94 1011.76 1012.47 1013.00 1013.78 1014.51 1015.07 1015.53 1015.95 1016.25 1016.87 1017.32 1017.28 1016.96 1016.72 1017.13 1018.63 1019.31 1019.89 1020.69 1021.15 1021.47 1021.77 1022.14 1022.57 1023.00
998.91 999.13 999.54 1000.62 1001.95 1003.12 1004.02 1004.96 1006.09 1006.60 1006.75 1007.22 1007.66 1008.04 1008.48 1009.14 1009.73 1010.52 1011.32 1011.99 1012.66 1013.42 1014.03 1014.69 1015.27 1015.51 1015.10 1016.69 1017.18 1017.50 1016.81 1016.79 1017.27 1017.93 1018.82 1019.73 1020.34 1020.93 1021.39 1021.72 1021.95 1022.38 1022.80
997.82 998.37 998.87 999.89 1001.28 1002.71 1003.78 1004.81 1005.78 1006.25 1006.50 1006.79 1007.38 1007.92 1008.37 1008.95 1009.50 1010.11 1011.02 1011.76 1012.25 1013.14 1013.57 1014.34 1014.75 1015.14 1015.56 1016.23 1016.90 1017.12 1016.46 1016.81 1017.39 1018.07 1018.70 1019.42 1019.99 1020.54 1021.05 1021.62 1022.01 1022.30 1022.76
997.12 997.60 998.16 999.33 1000.86 1002.00 1003.35 1004.34 1005.14 1005.61 1006.28 1006.65 1007.04 1007.48 1008.01 1008.59 1009.18 1009.89 1010.62 1011.36 1012.01 1012.65 1013.28 1013.52 1014.28 1014.93 1015.64 1016.35 1016.93 1016.60 1016.94 1016.95 1017.61 1018.09 1018.59 1019.14 1019.78 1020.34 1020.80 1021.19 1021.76 1021.97 1022.65
996.91 997.19 997.72 998.80 1000.25 1001.37 1002.61 1003.79 1004.65 1005.39 1005.93 1006.44 1006.97 1007.45 1007.78 1008.27 1008.81 1009.55 1010.15 1010.87 1011.57 1012.14 1012.25 1013.04 1013.98 1014.71 1015.31 1015.99 1016.33 1016.23 1017.17 1017.74 1017.90 1017.93 1018.37 1018.90 1019.36 1019.80 1020.22 1020.65 1020.95 1021.45 1022.01
996.39 996.95 997.39 998.19 999.65 1000.73 1002.17 1003.54 1004.28 1004.98 1005.47 1006.09 1006.38 1007.05 1007.55 1008.00 1008.42 1009.06 1009.74 1010.32 1010.96 1011.56 1012.02 1012.36 1013.48 1014.26 1014.70 1015.62 1015.94 1015.08 1016.38 1017.23 1017.59 1017.87 1018.04 1018.25 1018.80 1019.34 1019.45 1019.74 1020.21 1020.62 1021.09
995.65 996.07 996.87 997.61 998.67 1000.15 1001.50 1002.84 1003.33 1003.59 1004.34 1005.00 1005.76 1006.51 1007.13 1007.54 1008.09 1008.57 1009.24 1009.78 1010.41 1010.91 1011.56 1012.41 1012.92 1013.45 1014.32 1014.99 1015.49 1014.92 1015.14 1015.97 1016.90 1017.96 1018.10 1018.12 1018.28 1018.59 1018.93 1019.16 1019.54 1020.04 1020.35
995.24 995.65 996.30 997.15 998.22 999.72 1000.92 1001.96 1002.63 1002.97 1003.90 1004.63 1005.30 1005.96 1006.50 1007.13 1007.50 1008.06 1008.64 1009.26 1009.78 1010.36 1011.06 1011.72 1012.40 1012.87 1013.74 1014.27 1014.43 1014.65 1014.80 1015.69 1016.19 1016.85 1017.74 1018.00 1018.08 1018.21 1018.55 1018.87 1019.14 1019.53 1019.78
994.72 995.19 995.94 996.88 997.90 999.41 1000.44 1001.33 1001.58 1002.47 1003.17 1003.84 1004.58 1005.35 1006.03 1006.70 1007.14 1007.71 1008.15 1008.64 1009.12 1009.72 1010.30 1010.84 1011.62 1012.24 1013.08 1013.82 1014.07 1013.92 1014.22 1015.05 1015.75 1016.13 1016.73 1017.31 1017.48 1017.69 1018.00 1018.35 1018.74 1019.08 1019.32
Wind_Speed
14 17 17 15 15 15 14 14 13 12 12 12 11 11 11 11 10 11 12 13 14 16 17 15 13 13 11 11 15 17 16 17 17 19 19 19 20 20 17 18 21 17 19
17 17 16 15 15 14 14 13 13 12 12 12 12 12 12 12 11 11 12 12 13 15 16 15 14 14 15 14 14 15 16 15 16 18 19 18 18 17 17 21 20 18 20
16 16 15 14 14 13 13 13 13 13 13 13 12 13 13 13 12 11 11 11 13 15 16 14 15 16 16 14 12 14 15 14 14 16 18 11 12 21 23 22 20 21 21
16 13 14 13 12 12 11 11 12 13 13 13 12 13 14 14 14 13 12 11 12 14 15 15 15 16 16 14 13 12 13 13 11 10 8 11 13 21 23 22 21 22 21
15 13 14 13 12 11 10 10 11 13 13 13 13 13 14 14 15 14 13 12 14 14 15 15 16 15 14 13 13 12 11 11 10 9 8 10 8 15 20 21 20 19 20
15 13 16 14 13 12 11 10 11 12 12 13 13 14 14 15 16 15 14 13 14 14 14 15 15 15 13 13 13 12 11 10 6 7 10 12 11 18 20 20 20 20 20
11 14 14 14 12 12 12 11 11 12 12 13 14 13 15 15 15 15 14 14 13 14 14 14 15 15 14 13 13 12 10 8 7 7 11 10 11 20 22 23 21 20 19
14 12 12 12 11 11 10 11 11 11 12 12 13 14 15 15 15 13 14 14 13 13 13 15 16 15 15 14 13 10 8 7 8 8 12 8 16 20 21 22 20 19 19
10 12 10 10 10 10 9 9 9 9 11 12 12 13 12 12 11 13 14 15 17 14 13 16 16 14 14 14 13 10 8 6 7 7 11 8 16 19 20 20 20 20 19
8 9 11 9 10 9 8 9 8 7 9 11 11 11 11 10 11 11 13 14 14 12 16 18 15 15 9 11 12 9 8 9 7 9 8 8 15 17 18 18 17 17 16
8 7 9 9 10 10 10 9 9 8 7 9 10 9 5 6 8 11 11 10 10 8 8 8 10 10 6 6 8 10 7 3 6 5 8 14 14 16 17 16 15 15 15
10 10 9 7 10 10 9 11 9 9 7 6 7 9 6 6 6 8 7 8 14 10 12 17 19 10 6 3 2 4 4 6 6 5 8 15 16 16 16 16 16 15 15
14 11 11 10 7 9 7 9 6 6 6 6 9 8 7 5 4 3 5 5 7 13 7 9 6 6 9 5 5 5 5 6 5 7 11 14 17 17 16 16 16 15 16
17 18 16 14 10 9 5 7 8 7 7 6 7 8 5 4 5 5 5 7 8 6 9 9 6 6 5 6 10 9 7 7 4 6 9 14 17 17 17 17 16 17 16
9 18 20 16 12 11 7 7 5 6 8 7 7 7 5 5 6 5 7 8 7 7 9 9 8 8 6 9 11 9 6 7 10 7 6 12 14 18 17 16 17 17 15
11 10 20 20 16 14 10 7 5 3 6 8 7 7 7 5 6 6 7 8 9 9 8 9 9 8 7 7 8 9 8 6 10 12 8 8 13 15 16 16 17 17 16
13 9 21 19 17 15 15 10 7 6 4 3 7 9 9 8 7 8 7 7 7 8 10 7 7 6 6 6 6 12 7 7 13 13 10 8 7 12 13 14 15 16 16
15 12 16 16 18 16 13 10 7 7 8 6 4 6 11 10 9 8 7 6 7 7 6 7 8 8 9 8 6 9 5 5 7 14 11 9 6 6 9 13 15 15 14
18 12 10 19 19 17 11 8 8 10 8 8 7 5 6 9 9 8 7 7 8 8 8 7 6 5 13 8 7 7 5 6 6 9 11 10 10 7 5 9 13 13 15
16 14 11 15 18 16 10 9 7 7 7 7 8 9 11 7 9 9 7 8 8 7 8 7 9 6 7 7 7 10 5 5 5 5 10 8 7 8 6 8 6 6 11
8 8 11 15 17 13 10 10 8 9 8 6 6 7 11 9 10 10 7 8 10 10 11 11 8 11 6 7 6 4 5 5 7 6 9 8 10 8 7 9 6 5 5
9 8 9 14 19 13 10 9 7 7 5 5 6 7 7 10 11 10 10 9 9 9 13 11 11 7 6 7 5 6 4 3 1 7 8 9 12 10 10 11 11 9 9
11 9 9 10 19 15 14 9 7 9 7 8 8 7 9 9 11 12 11 9 11 10 9 12 12 14 9 8 7 8 5 4 4 1 4 5 9 10 9 10 12 11 10
11 9 10 10 11 16 16 13 16 11 8 5 6 6 7 12 13 13 13 11 12 9 12 12 12 13 9 9 4 9 5 7 8 4 3 4 6 7 6 6 9 9 8
8 9 10 11 11 18 17 15 13 12 8 6 6 10 9 8 10 11 11 12 12 10 13 14 14 14 10 8 8 7 5 6 9 6 4 3 3 5 5 5 5 6 6
8 8 12 12 11 16 15 17 14 14 11 9 10 8 8 7 7 10 11 12 13 12 14 14 13 16 14 10 9 7 8 5 9 8 4 9 8 6 6 6 5 5 5
Wind_Direction
124 137 138 141 142 146 151 153 153 151 150 150 144 136 127 122 114 110 110 112 119 121 125 128 124 116 100 97 96 93 95 97 99 98 97 101 105 107 108 105 97 98 96
127 141 141 145 147 150 152 156 156 155 155 154 148 140 135 130 126 126 125 124 127 130 132 131 125 115 108 99 98 98 100 101 101 101 102 103 105 108 107 94 97 98 95
126 133 148 147 153 152 150 155 161 161 160 156 151 146 145 141 139 136 139 139 139 136 137 138 133 127 118 111 103 105 106 107 112 120 120 101 96 105 103 100 103 99 99
129 139 147 149 150 150 149 152 160 165 164 160 155 154 152 150 150 151 148 147 144 141 144 146 140 132 124 115 113 113 115 121 130 128 104 107 111 113 111 109 106 104 100
132 151 141 147 146 141 143 146 154 165 164 160 158 163 165 162 160 160 154 152 150 149 150 148 138 130 124 120 119 123 129 140 142 116 97 108 108 115 112 110 109 110 103
141 147 142 146 144 144 142 145 153 158 157 160 161 168 168 170 168 162 161 156 156 158 153 145 138 131 128 126 129 137 148 143 113 112 110 116 111 115 110 102 102 103 105
130 117 146 144 146 147 148 151 157 154 163 166 165 168 175 176 169 174 168 163 163 163 156 145 137 135 137 137 142 149 163 121 116 112 106 101 114 119 112 109 106 105 105
116 130 134 143 145 145 148 153 159 159 166 162 165 174 181 178 179 174 166 171 163 163 156 155 144 145 144 145 149 155 133 136 115 115 106 110 127 121 119 116 112 110 109
118 124 138 157 154 144 153 159 162 160 160 163 170 177 181 182 181 172 172 180 180 166 148 145 149 146 149 152 152 162 116 116 124 117 120 116 121 123 123 121 123 121 120
119 127 145 160 162 160 162 159 165 164 165 162 163 176 182 182 179 181 181 189 184 162 170 159 163 137 158 163 157 135 145 141 133 136 124 126 129 129 130 130 126 118 112
147 158 148 169 169 169 160 165 167 175 162 153 164 179 200 197 189 185 192 184 179 152 176 121 93 112 155 191 165 138 171 127 146 108 118 129 136 138 131 128 112 121 135
174 174 157 185 173 174 173 150 175 175 180 182 187 184 204 200 169 181 155 153 136 131 131 130 128 145 178 171 193 171 205 124 115 108 127 136 141 140 133 124 123 130 139
188 180 169 174 187 177 184 152 172 175 181 185 195 193 180 182 163 172 114 133 138 136 130 116 159 175 177 179 193 206 171 108 132 133 141 143 142 143 137 137 143 143 139
191 179 174 169 187 190 186 167 172 173 175 181 188 190 171 169 156 160 148 144 138 146 152 157 167 236 158 217 186 210 150 125 138 121 153 151 143 144 146 150 149 149 148
235 186 170 169 183 184 193 181 176 179 175 180 170 178 165 159 153 159 164 158 162 164 165 168 173 188 189 191 235 186 174 158 145 150 143 148 147 145 155 161 155 148 153
229 206 166 174 185 173 190 178 183 178 172 169 173 168 163 152 151 163 167 172 168 171 168 170 177 180 193 203 221 192 182 174 150 139 143 149 153 148 156 169 159 159 155
240 222 164 171 181 174 185 180 182 179 197 182 160 160 168 164 168 171 166 167 169 171 171 168 166 173 189 197 195 217 184 201 147 137 147 147 156 150 157 161 162 164 167
229 220 167 166 174 182 178 171 185 192 181 186 195 167 173 174 170 175 176 178 171 146 166 176 179 188 180 182 194 231 193 146 127 153 148 145 150 155 170 168 167 167 170
227 217 180 166 170 178 168 158 180 208 186 177 179 181 182 174 172 174 171 169 160 163 169 175 187 206 162 174 191 209 218 128 134 134 140 149 158 158 170 173 170 167 171
216 219 179 154 161 169 163 165 183 204 196 191 177 182 190 177 179 169 176 172 165 165 166 169 169 156 167 170 191 214 143 124 132 139 150 143 150 164 166 164 171 170 180
226 205 179 154 158 155 169 175 180 189 189 185 188 174 181 171 188 184 179 178 177 179 175 169 163 167 165 168 192 126 54 123 154 146 153 159 165 176 158 166 171 171 188
210 213 169 161 154 160 173 187 184 183 187 179 165 184 174 184 183 192 183 182 175 192 160 162 164 175 182 188 184 142 138 76 92 174 167 171 179 175 180 174 178 187 181
201 199 163 162 159 163 167 169 181 177 184 189 173 175 191 186 187 191 196 185 183 178 168 171 169 177 181 187 233 155 140 172 136 240 186 178 164 176 183 184 185 189 184
197 180 171 168 172 162 162 178 193 187 181 178 173 177 186 196 200 193 192 185 181 176 175 181 175 178 181 187 192 179 153 143 160 158 238 190 174 183 182 185 177 188 195
214 176 169 172 186 156 171 189 199 185 177 161 178 187 185 200 193 193 191 188 183 182 180 178 177 179 183 178 181 179 174 158 174 147 173 220 199 180 189 192 174 183 199
211 186 165 166 170 159 180 205 194 173 181 185 185 179 184 188 192 196 192 188 183 180 181 177 177 178 180 187 197 188 191 157 183 168 162 191 192 187 185 179 199 185 193